{"data":{"norad_id":68825,"epoch":"2026-09-20T01:05:42.017280Z","epoch_age_seconds":79266,"freshness":"FRESH","line1":"1 68825U 26089Z   26263.04562520  .00011988  00000+0  37303-3 0  9992","line2":"2 68825  97.2842 108.8824 0002360  87.3554 272.7959 15.33446395 23196","mean_motion":15.33446395,"eccentricity":0.000236,"inclination_deg":97.2842,"raan_deg":108.8824,"arg_perigee_deg":87.3554,"mean_anomaly_deg":272.7959,"bstar":0.00037303,"rev_number":2319,"period_min":93.906119228902,"perigee_km":463.92391640109,"apogee_km":467.15413148439,"semimajor_km":6843.6760239427,"source":"CELESTRAK","updated_at":"2026-09-20T09:00:44.012681Z"}}